GFSMA_prec_pwat_162.txt.gz
Precipitable_Water
0.74 0.73 0.70 0.66 0.62 0.60 0.57 0.55 0.56 0.55 0.55 0.59 0.62 0.62 0.65 0.75 0.83 0.90 0.99 1.08 1.06 1.14 1.21 1.27 1.30 1.32 1.35 1.41 1.42 1.42 1.44 1.37 1.39 1.46 1.51 1.57 1.67 1.72 1.69 1.65 1.58 1.51 1.50
0.63 0.61 0.58 0.55 0.51 0.49 0.47 0.47 0.45 0.45 0.43 0.44 0.44 0.46 0.49 0.51 0.53 0.61 0.80 0.92 1.00 1.03 1.08 1.11 1.20 1.22 1.25 1.26 1.33 1.44 1.45 1.32 1.33 1.41 1.41 1.47 1.57 1.61 1.67 1.64 1.65 1.59 1.53
0.59 0.58 0.54 0.52 0.50 0.52 0.50 0.48 0.47 0.47 0.46 0.46 0.44 0.45 0.44 0.43 0.42 0.46 0.53 0.64 0.85 0.96 1.01 1.05 1.08 1.11 1.13 1.14 1.15 1.18 1.25 1.28 1.30 1.36 1.38 1.37 1.43 1.56 1.60 1.58 1.51 1.68 1.59
0.59 0.56 0.53 0.50 0.53 0.53 0.52 0.49 0.48 0.46 0.45 0.45 0.45 0.42 0.42 0.42 0.42 0.44 0.47 0.81 0.83 0.79 0.84 0.91 1.01 1.05 1.08 1.09 1.14 1.18 1.21 1.19 1.26 1.31 1.30 1.33 1.43 1.46 1.52 1.60 1.55 1.67 1.65
0.60 0.57 0.54 0.53 0.55 0.54 0.54 0.52 0.51 0.51 0.47 0.48 0.45 0.43 0.45 0.48 0.51 0.50 0.68 0.72 0.73 0.74 0.72 0.72 0.77 0.87 0.93 0.99 1.05 1.10 1.14 1.14 1.13 1.15 1.21 1.24 1.27 1.40 1.44 1.52 1.63 1.52 1.67
0.62 0.60 0.58 0.56 0.58 0.56 0.55 0.53 0.51 0.51 0.53 0.47 0.44 0.45 0.45 0.50 0.59 0.73 0.77 0.76 0.72 0.70 0.67 0.66 0.66 0.67 0.75 0.80 0.87 0.95 1.01 1.05 1.08 1.08 1.09 1.13 1.17 1.31 1.43 1.45 1.46 1.35 1.65
0.63 0.63 0.61 0.58 0.59 0.57 0.56 0.53 0.52 0.49 0.51 0.48 0.40 0.37 0.50 0.64 0.64 0.69 0.75 0.67 0.63 0.62 0.60 0.58 0.58 0.62 0.65 0.70 0.72 0.75 0.83 0.92 0.99 1.03 1.04 1.04 1.09 1.13 1.26 1.46 1.46 1.53 1.58
0.65 0.64 0.62 0.59 0.58 0.59 0.57 0.55 0.52 0.49 0.52 0.49 0.40 0.41 0.39 0.54 0.56 0.67 0.66 0.65 0.60 0.55 0.52 0.56 0.54 0.54 0.57 0.61 0.62 0.64 0.65 0.67 0.78 0.89 0.93 0.95 1.01 1.07 1.15 1.27 1.48 1.57 1.60
0.66 0.64 0.62 0.60 0.60 0.62 0.59 0.55 0.52 0.49 0.45 0.48 0.47 0.41 0.35 0.35 0.43 0.56 0.56 0.53 0.51 0.49 0.47 0.50 0.52 0.54 0.55 0.55 0.53 0.51 0.53 0.57 0.62 0.70 0.82 0.88 0.94 1.01 1.09 1.17 1.29 1.37 1.49
0.66 0.65 0.62 0.61 0.62 0.62 0.56 0.54 0.53 0.50 0.46 0.41 0.43 0.43 0.43 0.44 0.35 0.31 0.44 0.46 0.46 0.45 0.47 0.49 0.50 0.49 0.49 0.49 0.47 0.45 0.44 0.41 0.48 0.57 0.67 0.76 0.83 0.96 1.00 1.09 1.20 1.31 1.40
0.65 0.63 0.61 0.62 0.60 0.58 0.55 0.52 0.48 0.45 0.44 0.39 0.38 0.36 0.35 0.38 0.39 0.31 0.27 0.33 0.37 0.43 0.47 0.46 0.47 0.45 0.45 0.44 0.43 0.42 0.41 0.43 0.42 0.44 0.50 0.64 0.73 0.82 0.95 1.03 1.00 1.16 1.30
0.61 0.60 0.61 0.60 0.59 0.57 0.53 0.50 0.49 0.45 0.42 0.39 0.37 0.35 0.32 0.30 0.28 0.28 0.25 0.27 0.27 0.30 0.40 0.46 0.45 0.43 0.42 0.39 0.40 0.40 0.44 0.46 0.46 0.46 0.47 0.49 0.58 0.69 0.78 0.85 1.02 0.99 1.09
0.59 0.62 0.64 0.63 0.57 0.56 0.51 0.48 0.45 0.42 0.41 0.38 0.35 0.33 0.34 0.32 0.32 0.30 0.26 0.24 0.24 0.30 0.41 0.45 0.44 0.42 0.39 0.36 0.34 0.36 0.42 0.44 0.46 0.48 0.49 0.50 0.50 0.53 0.63 0.71 0.80 0.92 1.01
0.63 0.63 0.59 0.58 0.58 0.54 0.50 0.45 0.42 0.39 0.37 0.34 0.32 0.30 0.29 0.29 0.30 0.29 0.27 0.24 0.21 0.24 0.33 0.35 0.40 0.38 0.36 0.34 0.31 0.33 0.39 0.41 0.44 0.47 0.50 0.50 0.50 0.50 0.50 0.57 0.65 0.74 0.86
0.62 0.63 0.61 0.57 0.54 0.50 0.44 0.42 0.38 0.35 0.33 0.29 0.30 0.27 0.27 0.29 0.30 0.30 0.28 0.27 0.24 0.20 0.21 0.30 0.31 0.35 0.33 0.33 0.31 0.33 0.37 0.40 0.41 0.44 0.47 0.49 0.50 0.50 0.50 0.50 0.53 0.60 0.68
0.64 0.60 0.58 0.54 0.49 0.44 0.40 0.37 0.35 0.32 0.30 0.29 0.29 0.29 0.27 0.27 0.28 0.28 0.27 0.27 0.27 0.25 0.22 0.27 0.27 0.30 0.31 0.31 0.30 0.34 0.35 0.38 0.41 0.42 0.45 0.46 0.47 0.49 0.49 0.49 0.49 0.49 0.54
0.62 0.60 0.56 0.50 0.45 0.41 0.39 0.36 0.31 0.30 0.29 0.29 0.28 0.27 0.25 0.26 0.27 0.28 0.27 0.28 0.26 0.26 0.22 0.23 0.27 0.29 0.29 0.28 0.27 0.33 0.35 0.36 0.40 0.41 0.43 0.44 0.45 0.46 0.47 0.47 0.47 0.49 0.48
0.62 0.57 0.51 0.46 0.42 0.38 0.36 0.32 0.29 0.28 0.27 0.26 0.27 0.27 0.25 0.25 0.26 0.27 0.26 0.26 0.25 0.25 0.22 0.21 0.24 0.25 0.25 0.25 0.24 0.28 0.33 0.38 0.38 0.40 0.40 0.41 0.43 0.44 0.44 0.46 0.46 0.46 0.48
0.58 0.54 0.48 0.44 0.41 0.37 0.34 0.31 0.29 0.27 0.27 0.27 0.27 0.26 0.23 0.22 0.22 0.22 0.24 0.24 0.23 0.22 0.23 0.22 0.21 0.24 0.24 0.22 0.20 0.23 0.28 0.33 0.35 0.39 0.41 0.41 0.43 0.43 0.44 0.45 0.46 0.46 0.46
0.55 0.53 0.47 0.42 0.39 0.36 0.33 0.30 0.29 0.29 0.28 0.27 0.26 0.25 0.23 0.21 0.19 0.19 0.21 0.21 0.20 0.20 0.22 0.20 0.22 0.21 0.21 0.19 0.18 0.18 0.21 0.30 0.29 0.33 0.38 0.42 0.41 0.43 0.44 0.45 0.46 0.47 0.47
0.57 0.53 0.46 0.43 0.42 0.38 0.34 0.33 0.31 0.30 0.29 0.28 0.27 0.26 0.26 0.24 0.22 0.20 0.19 0.19 0.18 0.19 0.19 0.19 0.20 0.18 0.17 0.15 0.14 0.18 0.19 0.25 0.27 0.28 0.32 0.37 0.41 0.42 0.43 0.45 0.45 0.47 0.47
0.52 0.54 0.47 0.42 0.40 0.34 0.33 0.34 0.32 0.30 0.28 0.26 0.25 0.26 0.26 0.22 0.22 0.21 0.20 0.19 0.18 0.17 0.17 0.17 0.17 0.15 0.15 0.14 0.15 0.17 0.17 0.20 0.21 0.25 0.28 0.32 0.40 0.42 0.43 0.43 0.44 0.46 0.47
0.57 0.49 0.46 0.44 0.38 0.33 0.32 0.32 0.32 0.29 0.26 0.25 0.23 0.23 0.23 0.21 0.19 0.21 0.22 0.21 0.20 0.18 0.18 0.17 0.14 0.13 0.13 0.14 0.15 0.16 0.18 0.19 0.20 0.20 0.28 0.27 0.31 0.38 0.45 0.45 0.45 0.42 0.45
0.52 0.46 0.43 0.42 0.36 0.32 0.30 0.30 0.29 0.26 0.26 0.25 0.23 0.23 0.21 0.19 0.18 0.19 0.18 0.19 0.18 0.17 0.16 0.17 0.16 0.16 0.15 0.15 0.16 0.17 0.19 0.24 0.23 0.20 0.19 0.18 0.25 0.28 0.35 0.40 0.43 0.41 0.40
0.49 0.45 0.41 0.38 0.35 0.31 0.29 0.29 0.28 0.27 0.25 0.23 0.22 0.20 0.20 0.18 0.19 0.20 0.17 0.14 0.15 0.17 0.18 0.19 0.20 0.20 0.17 0.15 0.15 0.16 0.16 0.18 0.16 0.14 0.15 0.15 0.18 0.22 0.24 0.24 0.24 0.31 0.33
0.44 0.41 0.39 0.41 0.36 0.31 0.28 0.28 0.28 0.28 0.24 0.23 0.24 0.22 0.19 0.18 0.19 0.18 0.16 0.15 0.13 0.14 0.17 0.17 0.19 0.18 0.18 0.16 0.16 0.15 0.14 0.12 0.11 0.09 0.14 0.14 0.14 0.19 0.17 0.20 0.17 0.17 0.17

GFSMA_prec_pwat_165.txt.gz
Precipitable_Water
0.77 0.77 0.71 0.68 0.62 0.55 0.50 0.47 0.45 0.44 0.43 0.45 0.46 0.47 0.49 0.52 0.53 0.62 0.75 0.96 1.04 1.08 1.13 1.17 1.18 1.24 1.28 1.34 1.28 1.25 1.35 1.35 1.36 1.44 1.41 1.43 1.52 1.54 1.64 1.68 1.67 1.67 1.57
0.70 0.65 0.62 0.58 0.53 0.50 0.48 0.46 0.45 0.44 0.44 0.45 0.44 0.46 0.44 0.44 0.43 0.47 0.62 0.72 0.79 0.88 0.95 1.00 1.05 1.09 1.16 1.23 1.23 1.21 1.29 1.31 1.39 1.43 1.41 1.37 1.43 1.54 1.55 1.66 1.72 1.62 1.57
0.64 0.61 0.57 0.50 0.51 0.52 0.50 0.49 0.48 0.48 0.45 0.47 0.44 0.43 0.43 0.42 0.42 0.44 0.62 0.71 0.73 0.76 0.83 0.91 0.98 1.07 1.12 1.11 1.13 1.16 1.22 1.23 1.23 1.30 1.35 1.31 1.37 1.41 1.48 1.55 1.58 1.62 1.58
0.65 0.59 0.53 0.54 0.56 0.55 0.52 0.49 0.48 0.45 0.47 0.45 0.42 0.40 0.43 0.48 0.49 0.60 0.72 0.73 0.74 0.76 0.78 0.81 0.83 0.86 0.93 1.03 1.06 1.06 1.07 1.10 1.15 1.19 1.20 1.18 1.22 1.36 1.41 1.40 1.49 1.58 1.60
0.63 0.59 0.57 0.59 0.59 0.56 0.52 0.51 0.51 0.51 0.49 0.46 0.42 0.44 0.47 0.51 0.58 0.73 0.74 0.75 0.75 0.74 0.71 0.70 0.69 0.74 0.76 0.80 0.84 0.87 0.93 0.97 1.03 1.10 1.13 1.16 1.17 1.23 1.29 1.36 1.40 1.47 1.54
0.65 0.61 0.60 0.61 0.60 0.56 0.53 0.53 0.53 0.56 0.53 0.47 0.44 0.51 0.53 0.58 0.77 0.77 0.76 0.77 0.73 0.70 0.67 0.62 0.58 0.60 0.66 0.68 0.67 0.69 0.71 0.79 0.89 0.96 1.02 1.07 1.09 1.11 1.15 1.21 1.33 1.38 1.42
0.66 0.64 0.62 0.63 0.62 0.57 0.55 0.54 0.54 0.54 0.51 0.49 0.42 0.58 0.61 0.64 0.74 0.76 0.74 0.69 0.66 0.63 0.61 0.58 0.56 0.56 0.60 0.60 0.60 0.59 0.59 0.64 0.69 0.75 0.86 0.95 0.98 1.02 1.07 1.10 1.13 1.29 1.41
0.67 0.66 0.64 0.64 0.64 0.59 0.55 0.54 0.53 0.54 0.53 0.50 0.41 0.44 0.46 0.57 0.63 0.63 0.60 0.57 0.56 0.55 0.54 0.53 0.54 0.54 0.56 0.52 0.49 0.50 0.52 0.54 0.61 0.67 0.72 0.78 0.85 0.94 1.01 1.04 1.09 1.15 1.23
0.68 0.69 0.68 0.66 0.65 0.61 0.56 0.55 0.56 0.53 0.47 0.50 0.48 0.41 0.35 0.38 0.49 0.56 0.52 0.50 0.50 0.50 0.49 0.49 0.49 0.49 0.49 0.47 0.46 0.46 0.46 0.45 0.47 0.54 0.61 0.67 0.73 0.84 0.91 0.98 1.03 1.09 1.16
0.71 0.70 0.68 0.67 0.63 0.60 0.57 0.57 0.57 0.53 0.50 0.42 0.44 0.42 0.41 0.41 0.33 0.34 0.45 0.46 0.45 0.45 0.45 0.44 0.45 0.45 0.46 0.45 0.44 0.44 0.44 0.44 0.44 0.45 0.48 0.55 0.64 0.70 0.81 0.89 0.99 1.05 1.11
0.72 0.70 0.67 0.64 0.61 0.59 0.59 0.57 0.55 0.53 0.49 0.42 0.40 0.37 0.37 0.40 0.36 0.31 0.26 0.28 0.32 0.37 0.41 0.41 0.40 0.40 0.40 0.39 0.36 0.38 0.43 0.45 0.45 0.47 0.48 0.49 0.51 0.60 0.69 0.79 0.88 0.98 1.03
0.68 0.67 0.64 0.61 0.60 0.60 0.60 0.60 0.57 0.54 0.46 0.43 0.40 0.36 0.33 0.32 0.31 0.28 0.24 0.24 0.22 0.30 0.39 0.41 0.42 0.41 0.40 0.36 0.35 0.36 0.35 0.39 0.42 0.45 0.48 0.49 0.50 0.50 0.52 0.66 0.76 0.85 0.97
0.65 0.64 0.61 0.58 0.60 0.61 0.62 0.62 0.58 0.52 0.47 0.41 0.37 0.34 0.33 0.31 0.31 0.29 0.26 0.23 0.20 0.30 0.35 0.35 0.35 0.35 0.37 0.37 0.37 0.34 0.35 0.34 0.38 0.42 0.46 0.48 0.50 0.51 0.50 0.50 0.59 0.70 0.78
0.61 0.60 0.61 0.62 0.61 0.61 0.60 0.58 0.52 0.47 0.44 0.39 0.34 0.32 0.32 0.31 0.30 0.29 0.26 0.24 0.20 0.25 0.31 0.29 0.33 0.32 0.34 0.34 0.36 0.35 0.36 0.35 0.38 0.41 0.42 0.45 0.47 0.48 0.49 0.49 0.48 0.52 0.63
0.60 0.62 0.64 0.63 0.60 0.59 0.59 0.54 0.49 0.45 0.40 0.37 0.33 0.30 0.29 0.29 0.29 0.29 0.29 0.27 0.23 0.18 0.21 0.29 0.29 0.33 0.31 0.29 0.32 0.32 0.35 0.38 0.40 0.39 0.40 0.41 0.43 0.45 0.47 0.47 0.47 0.48 0.47
0.62 0.65 0.63 0.61 0.60 0.57 0.54 0.49 0.43 0.42 0.37 0.34 0.31 0.28 0.27 0.27 0.28 0.28 0.27 0.27 0.26 0.24 0.20 0.26 0.26 0.29 0.29 0.27 0.30 0.32 0.35 0.37 0.40 0.39 0.39 0.40 0.42 0.42 0.44 0.45 0.45 0.46 0.46
0.68 0.64 0.64 0.60 0.56 0.53 0.49 0.44 0.40 0.38 0.34 0.31 0.30 0.28 0.26 0.27 0.27 0.26 0.27 0.26 0.25 0.25 0.22 0.24 0.27 0.29 0.27 0.27 0.27 0.31 0.36 0.35 0.37 0.39 0.38 0.38 0.39 0.39 0.41 0.42 0.43 0.45 0.45
0.70 0.66 0.61 0.55 0.52 0.49 0.45 0.40 0.37 0.35 0.31 0.29 0.29 0.27 0.25 0.24 0.24 0.24 0.24 0.23 0.23 0.24 0.23 0.21 0.23 0.25 0.24 0.26 0.26 0.27 0.31 0.35 0.37 0.40 0.38 0.38 0.38 0.39 0.41 0.41 0.42 0.44 0.46
0.72 0.67 0.58 0.53 0.51 0.47 0.42 0.39 0.36 0.33 0.31 0.30 0.28 0.26 0.23 0.21 0.20 0.21 0.21 0.21 0.22 0.23 0.23 0.21 0.21 0.23 0.23 0.23 0.22 0.25 0.29 0.30 0.32 0.36 0.38 0.37 0.38 0.38 0.39 0.41 0.42 0.43 0.46
0.68 0.58 0.56 0.54 0.50 0.45 0.42 0.40 0.37 0.33 0.32 0.31 0.29 0.26 0.24 0.21 0.18 0.19 0.19 0.20 0.20 0.20 0.21 0.21 0.20 0.20 0.21 0.20 0.19 0.19 0.21 0.27 0.27 0.34 0.37 0.35 0.35 0.37 0.37 0.38 0.41 0.42 0.44
0.64 0.58 0.59 0.53 0.49 0.45 0.41 0.38 0.37 0.34 0.32 0.30 0.29 0.27 0.25 0.23 0.21 0.19 0.18 0.17 0.17 0.17 0.18 0.18 0.17 0.18 0.16 0.14 0.16 0.19 0.20 0.23 0.27 0.30 0.31 0.32 0.31 0.33 0.36 0.37 0.40 0.43 0.44
0.66 0.61 0.56 0.49 0.49 0.42 0.42 0.39 0.36 0.34 0.32 0.30 0.27 0.26 0.24 0.22 0.21 0.22 0.21 0.19 0.18 0.16 0.15 0.16 0.15 0.13 0.14 0.14 0.17 0.17 0.19 0.20 0.21 0.24 0.27 0.27 0.32 0.30 0.32 0.37 0.37 0.41 0.45
0.60 0.58 0.57 0.54 0.43 0.43 0.40 0.38 0.35 0.34 0.31 0.28 0.26 0.25 0.22 0.20 0.21 0.22 0.22 0.20 0.18 0.18 0.16 0.14 0.13 0.14 0.14 0.15 0.15 0.16 0.18 0.19 0.19 0.21 0.25 0.23 0.28 0.23 0.28 0.35 0.38 0.37 0.43
0.58 0.55 0.54 0.49 0.44 0.39 0.38 0.37 0.36 0.32 0.28 0.25 0.24 0.21 0.20 0.19 0.20 0.19 0.19 0.18 0.17 0.16 0.16 0.17 0.17 0.17 0.18 0.18 0.16 0.17 0.19 0.20 0.21 0.20 0.21 0.19 0.23 0.21 0.22 0.26 0.28 0.30 0.38
0.54 0.54 0.52 0.48 0.43 0.35 0.36 0.36 0.32 0.29 0.25 0.23 0.22 0.21 0.19 0.19 0.21 0.20 0.18 0.16 0.16 0.17 0.18 0.18 0.20 0.19 0.19 0.18 0.15 0.16 0.17 0.17 0.17 0.14 0.18 0.16 0.19 0.20 0.20 0.19 0.18 0.19 0.23
0.52 0.52 0.48 0.44 0.37 0.35 0.34 0.34 0.32 0.28 0.24 0.23 0.22 0.21 0.21 0.20 0.20 0.19 0.18 0.16 0.15 0.17 0.17 0.17 0.18 0.19 0.18 0.17 0.17 0.14 0.11 0.09 0.11 0.12 0.15 0.14 0.17 0.19 0.16 0.16 0.15 0.16 0.17

GFSMA_prec_pwat_168.txt.gz
Precipitable_Water
0.76 0.75 0.74 0.74 0.70 0.62 0.54 0.49 0.46 0.43 0.42 0.43 0.44 0.43 0.42 0.43 0.46 0.60 0.73 0.81 0.88 0.95 1.01 1.05 1.07 1.17 1.21 1.27 1.30 1.33 1.30 1.31 1.33 1.32 1.38 1.34 1.45 1.49 1.49 1.51 1.59 1.70 1.63
0.77 0.74 0.72 0.69 0.59 0.53 0.48 0.47 0.45 0.45 0.44 0.45 0.44 0.43 0.42 0.42 0.44 0.52 0.60 0.65 0.67 0.73 0.82 0.87 0.91 1.00 1.04 1.10 1.10 1.19 1.20 1.22 1.23 1.30 1.35 1.37 1.48 1.49 1.48 1.47 1.50 1.60 1.73
0.78 0.72 0.64 0.59 0.54 0.52 0.51 0.50 0.50 0.49 0.48 0.48 0.45 0.44 0.45 0.47 0.48 0.59 0.65 0.66 0.68 0.73 0.76 0.79 0.81 0.87 0.93 1.01 1.00 0.99 1.01 1.07 1.14 1.17 1.18 1.23 1.31 1.41 1.37 1.38 1.47 1.51 1.57
0.72 0.66 0.60 0.56 0.56 0.55 0.54 0.53 0.52 0.52 0.50 0.47 0.43 0.47 0.51 0.57 0.64 0.69 0.72 0.73 0.73 0.74 0.74 0.76 0.78 0.79 0.81 0.83 0.82 0.87 0.91 0.94 0.98 1.03 1.05 1.08 1.11 1.17 1.27 1.29 1.36 1.52 1.53
0.68 0.62 0.59 0.59 0.59 0.56 0.54 0.54 0.54 0.52 0.47 0.45 0.46 0.50 0.54 0.62 0.71 0.76 0.74 0.72 0.72 0.71 0.70 0.69 0.69 0.70 0.71 0.72 0.72 0.72 0.72 0.75 0.79 0.88 0.93 0.99 1.02 1.05 1.07 1.13 1.21 1.34 1.48
0.67 0.62 0.62 0.62 0.61 0.56 0.55 0.56 0.55 0.54 0.50 0.49 0.58 0.59 0.69 0.76 0.81 0.78 0.75 0.73 0.71 0.69 0.64 0.62 0.64 0.63 0.60 0.60 0.60 0.61 0.63 0.64 0.67 0.70 0.76 0.84 0.92 1.00 1.03 1.06 1.11 1.20 1.28
0.66 0.65 0.65 0.64 0.61 0.57 0.56 0.58 0.57 0.54 0.50 0.56 0.59 0.64 0.71 0.77 0.71 0.70 0.71 0.69 0.67 0.65 0.63 0.61 0.61 0.58 0.55 0.53 0.53 0.53 0.55 0.56 0.59 0.61 0.65 0.69 0.75 0.83 0.93 1.02 1.06 1.09 1.15
0.70 0.68 0.67 0.64 0.62 0.59 0.58 0.58 0.58 0.55 0.53 0.53 0.56 0.59 0.53 0.58 0.61 0.62 0.61 0.58 0.58 0.57 0.55 0.56 0.56 0.51 0.49 0.48 0.49 0.50 0.49 0.49 0.50 0.52 0.57 0.61 0.67 0.70 0.79 0.88 0.94 1.01 1.06
0.73 0.71 0.70 0.67 0.64 0.61 0.59 0.60 0.59 0.56 0.52 0.55 0.54 0.49 0.49 0.46 0.50 0.53 0.51 0.52 0.54 0.51 0.50 0.47 0.48 0.46 0.45 0.43 0.43 0.42 0.44 0.45 0.47 0.49 0.50 0.52 0.57 0.63 0.70 0.75 0.83 0.90 0.98
0.74 0.73 0.71 0.69 0.66 0.64 0.62 0.62 0.61 0.58 0.55 0.51 0.52 0.51 0.49 0.47 0.43 0.39 0.47 0.45 0.47 0.48 0.46 0.43 0.43 0.42 0.41 0.40 0.41 0.40 0.37 0.36 0.39 0.44 0.49 0.52 0.53 0.52 0.55 0.65 0.72 0.83 0.90
0.74 0.72 0.70 0.69 0.66 0.64 0.63 0.62 0.60 0.57 0.57 0.53 0.48 0.47 0.47 0.44 0.41 0.34 0.30 0.31 0.34 0.37 0.40 0.39 0.38 0.37 0.37 0.39 0.41 0.40 0.37 0.33 0.32 0.37 0.42 0.47 0.51 0.53 0.52 0.52 0.59 0.71 0.80
0.72 0.71 0.69 0.66 0.65 0.63 0.61 0.60 0.60 0.59 0.57 0.55 0.51 0.47 0.42 0.37 0.35 0.32 0.28 0.25 0.25 0.34 0.38 0.37 0.35 0.34 0.35 0.37 0.39 0.38 0.36 0.32 0.33 0.36 0.39 0.42 0.46 0.49 0.50 0.51 0.50 0.52 0.64
0.70 0.68 0.66 0.63 0.62 0.60 0.61 0.62 0.62 0.60 0.56 0.54 0.51 0.44 0.41 0.38 0.35 0.31 0.28 0.25 0.25 0.32 0.32 0.33 0.34 0.34 0.34 0.35 0.37 0.35 0.35 0.33 0.34 0.35 0.36 0.38 0.40 0.43 0.46 0.48 0.50 0.49 0.49
0.70 0.68 0.63 0.60 0.60 0.62 0.63 0.62 0.60 0.57 0.55 0.53 0.46 0.41 0.38 0.36 0.35 0.33 0.28 0.23 0.20 0.25 0.29 0.28 0.33 0.32 0.33 0.35 0.37 0.33 0.33 0.34 0.34 0.34 0.35 0.37 0.38 0.40 0.42 0.44 0.46 0.49 0.48
0.70 0.64 0.60 0.57 0.59 0.63 0.63 0.61 0.58 0.55 0.53 0.46 0.43 0.42 0.37 0.35 0.34 0.32 0.30 0.28 0.22 0.17 0.21 0.27 0.27 0.30 0.29 0.31 0.34 0.33 0.34 0.35 0.34 0.33 0.34 0.36 0.38 0.39 0.40 0.42 0.43 0.45 0.47
0.68 0.60 0.56 0.57 0.59 0.62 0.63 0.62 0.56 0.52 0.49 0.46 0.41 0.36 0.34 0.32 0.31 0.30 0.28 0.27 0.26 0.22 0.18 0.23 0.24 0.25 0.26 0.27 0.32 0.35 0.35 0.35 0.35 0.34 0.33 0.33 0.36 0.38 0.39 0.40 0.41 0.42 0.45
0.65 0.57 0.55 0.58 0.62 0.66 0.62 0.55 0.53 0.50 0.45 0.40 0.36 0.33 0.31 0.30 0.28 0.28 0.27 0.25 0.24 0.24 0.20 0.23 0.26 0.25 0.24 0.25 0.27 0.31 0.35 0.35 0.37 0.36 0.33 0.33 0.33 0.36 0.39 0.40 0.40 0.41 0.42
0.61 0.55 0.60 0.68 0.68 0.60 0.54 0.52 0.48 0.46 0.41 0.36 0.34 0.31 0.29 0.29 0.27 0.26 0.26 0.24 0.23 0.23 0.21 0.19 0.23 0.22 0.22 0.23 0.24 0.27 0.30 0.31 0.33 0.36 0.35 0.32 0.33 0.34 0.37 0.40 0.41 0.41 0.42
0.60 0.63 0.67 0.70 0.61 0.55 0.51 0.48 0.47 0.43 0.38 0.35 0.32 0.30 0.28 0.25 0.23 0.23 0.23 0.22 0.21 0.22 0.22 0.21 0.21 0.22 0.21 0.21 0.21 0.25 0.27 0.26 0.27 0.35 0.36 0.33 0.32 0.33 0.34 0.38 0.41 0.42 0.42
0.69 0.72 0.71 0.68 0.60 0.59 0.52 0.46 0.44 0.41 0.38 0.35 0.33 0.30 0.27 0.23 0.21 0.20 0.20 0.19 0.19 0.19 0.20 0.19 0.19 0.19 0.19 0.19 0.19 0.18 0.20 0.24 0.25 0.33 0.34 0.31 0.31 0.32 0.32 0.34 0.39 0.43 0.44
0.71 0.69 0.68 0.66 0.62 0.58 0.50 0.45 0.43 0.40 0.36 0.33 0.33 0.30 0.28 0.27 0.24 0.21 0.18 0.17 0.18 0.18 0.18 0.17 0.16 0.16 0.15 0.15 0.15 0.18 0.18 0.21 0.25 0.29 0.29 0.30 0.30 0.30 0.32 0.33 0.35 0.41 0.44
0.67 0.65 0.63 0.62 0.59 0.51 0.50 0.44 0.42 0.38 0.35 0.34 0.31 0.29 0.29 0.27 0.25 0.23 0.21 0.20 0.18 0.16 0.15 0.14 0.13 0.12 0.13 0.14 0.15 0.17 0.18 0.19 0.20 0.25 0.27 0.26 0.28 0.27 0.30 0.30 0.32 0.36 0.42
0.63 0.60 0.59 0.57 0.55 0.55 0.50 0.47 0.42 0.37 0.35 0.34 0.31 0.28 0.25 0.25 0.23 0.23 0.22 0.19 0.18 0.17 0.15 0.14 0.12 0.13 0.13 0.14 0.15 0.17 0.18 0.20 0.19 0.22 0.25 0.22 0.24 0.22 0.25 0.26 0.29 0.29 0.36
0.57 0.56 0.56 0.54 0.53 0.53 0.50 0.44 0.39 0.36 0.35 0.31 0.28 0.26 0.23 0.21 0.21 0.21 0.20 0.17 0.17 0.18 0.17 0.17 0.16 0.16 0.16 0.16 0.16 0.19 0.20 0.19 0.20 0.21 0.23 0.19 0.21 0.19 0.22 0.21 0.20 0.22 0.26
0.55 0.54 0.54 0.52 0.51 0.50 0.48 0.42 0.38 0.36 0.31 0.28 0.26 0.23 0.21 0.20 0.22 0.22 0.18 0.17 0.18 0.18 0.19 0.19 0.20 0.18 0.18 0.18 0.15 0.18 0.19 0.18 0.15 0.14 0.18 0.20 0.20 0.19 0.20 0.17 0.16 0.20 0.22
0.52 0.53 0.51 0.51 0.49 0.47 0.44 0.39 0.37 0.32 0.28 0.26 0.24 0.22 0.21 0.21 0.22 0.21 0.17 0.17 0.17 0.19 0.19 0.19 0.18 0.18 0.18 0.17 0.17 0.13 0.12 0.13 0.14 0.11 0.17 0.17 0.19 0.18 0.15 0.15 0.15 0.17 0.19

GFSMA_prec_pwat_174.txt.gz
Precipitable_Water
0.95 0.85 0.77 0.73 0.70 0.67 0.65 0.60 0.56 0.53 0.52 0.51 0.50 0.49 0.49 0.55 0.61 0.67 0.74 0.82 0.83 0.89 0.96 1.03 1.06 1.05 1.00 1.02 1.07 1.10 1.14 1.19 1.21 1.21 1.24 1.29 1.32 1.30 1.30 1.35 1.39 1.51 1.58
0.88 0.80 0.73 0.72 0.69 0.69 0.64 0.56 0.51 0.48 0.47 0.48 0.47 0.50 0.51 0.56 0.63 0.68 0.75 0.80 0.82 0.85 0.89 0.93 0.97 0.94 0.87 0.86 0.87 0.89 0.92 0.95 1.01 1.03 1.02 1.03 1.09 1.15 1.20 1.24 1.23 1.29 1.36
0.84 0.78 0.75 0.73 0.71 0.69 0.59 0.53 0.51 0.51 0.49 0.49 0.50 0.53 0.56 0.63 0.69 0.73 0.77 0.80 0.83 0.86 0.89 0.91 0.91 0.90 0.88 0.84 0.81 0.80 0.79 0.80 0.87 0.90 0.91 0.94 0.93 0.97 1.02 1.06 1.11 1.24 1.33
0.83 0.77 0.74 0.72 0.70 0.64 0.55 0.52 0.51 0.49 0.48 0.50 0.53 0.63 0.66 0.72 0.75 0.77 0.78 0.80 0.82 0.85 0.86 0.84 0.82 0.79 0.78 0.78 0.77 0.76 0.76 0.76 0.77 0.77 0.73 0.76 0.87 0.90 0.93 0.96 1.01 1.06 1.10
0.85 0.80 0.75 0.71 0.66 0.58 0.54 0.53 0.52 0.50 0.51 0.54 0.62 0.72 0.78 0.80 0.81 0.82 0.80 0.81 0.82 0.82 0.81 0.77 0.72 0.69 0.68 0.68 0.67 0.67 0.64 0.61 0.61 0.62 0.65 0.66 0.67 0.71 0.77 0.82 0.88 0.92 0.96
0.88 0.84 0.76 0.67 0.60 0.54 0.53 0.53 0.52 0.57 0.63 0.64 0.69 0.72 0.77 0.80 0.81 0.81 0.81 0.81 0.82 0.81 0.76 0.70 0.65 0.63 0.61 0.59 0.58 0.57 0.57 0.57 0.57 0.56 0.54 0.55 0.58 0.62 0.65 0.67 0.71 0.80 0.90
0.89 0.82 0.75 0.67 0.60 0.53 0.53 0.53 0.54 0.58 0.63 0.68 0.64 0.68 0.72 0.77 0.78 0.81 0.82 0.81 0.80 0.79 0.71 0.64 0.60 0.56 0.53 0.51 0.51 0.50 0.50 0.51 0.52 0.52 0.55 0.55 0.54 0.55 0.55 0.58 0.63 0.67 0.71
0.88 0.82 0.73 0.65 0.60 0.57 0.58 0.57 0.55 0.60 0.66 0.71 0.64 0.64 0.62 0.69 0.74 0.76 0.77 0.75 0.74 0.73 0.65 0.61 0.58 0.53 0.49 0.46 0.46 0.44 0.42 0.44 0.47 0.48 0.48 0.49 0.50 0.51 0.53 0.54 0.55 0.57 0.64
0.93 0.81 0.73 0.66 0.61 0.59 0.58 0.61 0.60 0.58 0.58 0.66 0.72 0.65 0.58 0.55 0.60 0.65 0.66 0.68 0.70 0.66 0.62 0.58 0.57 0.53 0.50 0.47 0.43 0.41 0.41 0.41 0.44 0.46 0.46 0.47 0.47 0.47 0.46 0.46 0.48 0.51 0.54
0.93 0.85 0.74 0.67 0.63 0.61 0.60 0.61 0.65 0.60 0.59 0.56 0.66 0.69 0.69 0.65 0.54 0.49 0.59 0.60 0.62 0.61 0.59 0.57 0.54 0.49 0.46 0.42 0.41 0.40 0.39 0.37 0.37 0.38 0.39 0.40 0.40 0.39 0.41 0.41 0.42 0.45 0.47
0.90 0.85 0.79 0.72 0.66 0.65 0.66 0.63 0.61 0.63 0.63 0.60 0.58 0.61 0.63 0.61 0.59 0.52 0.46 0.51 0.57 0.58 0.56 0.50 0.48 0.45 0.45 0.43 0.41 0.41 0.38 0.36 0.35 0.35 0.37 0.37 0.37 0.39 0.39 0.38 0.39 0.41 0.43
0.86 0.83 0.80 0.75 0.72 0.72 0.66 0.65 0.66 0.62 0.61 0.61 0.59 0.59 0.56 0.52 0.50 0.50 0.47 0.47 0.47 0.50 0.48 0.46 0.43 0.44 0.45 0.43 0.43 0.41 0.38 0.35 0.33 0.32 0.33 0.34 0.35 0.36 0.37 0.38 0.39 0.40 0.40
0.84 0.82 0.79 0.76 0.72 0.68 0.67 0.64 0.62 0.60 0.59 0.58 0.59 0.57 0.57 0.54 0.52 0.47 0.44 0.46 0.41 0.41 0.40 0.43 0.43 0.44 0.45 0.44 0.43 0.40 0.37 0.34 0.33 0.32 0.32 0.33 0.33 0.34 0.35 0.36 0.38 0.39 0.39
0.90 0.85 0.79 0.73 0.70 0.68 0.65 0.62 0.60 0.60 0.61 0.62 0.58 0.56 0.53 0.50 0.48 0.50 0.45 0.36 0.34 0.36 0.37 0.37 0.42 0.43 0.44 0.45 0.42 0.37 0.35 0.34 0.33 0.32 0.31 0.32 0.33 0.33 0.34 0.36 0.37 0.38 0.39
0.83 0.80 0.77 0.74 0.71 0.68 0.66 0.65 0.61 0.60 0.60 0.59 0.56 0.54 0.52 0.51 0.51 0.46 0.42 0.38 0.33 0.30 0.33 0.36 0.34 0.37 0.39 0.40 0.38 0.37 0.35 0.35 0.33 0.32 0.30 0.30 0.31 0.32 0.34 0.35 0.37 0.38 0.38
0.83 0.80 0.75 0.72 0.70 0.67 0.63 0.61 0.59 0.59 0.58 0.56 0.57 0.55 0.51 0.50 0.45 0.43 0.40 0.38 0.37 0.31 0.28 0.35 0.33 0.31 0.31 0.31 0.35 0.35 0.35 0.34 0.33 0.31 0.30 0.30 0.29 0.31 0.33 0.34 0.36 0.37 0.37
0.82 0.77 0.72 0.70 0.70 0.68 0.67 0.63 0.58 0.58 0.60 0.60 0.57 0.53 0.48 0.45 0.41 0.39 0.37 0.35 0.35 0.34 0.29 0.30 0.29 0.28 0.26 0.27 0.30 0.34 0.34 0.32 0.34 0.33 0.31 0.30 0.30 0.30 0.31 0.33 0.35 0.36 0.36
0.78 0.75 0.72 0.72 0.74 0.68 0.61 0.58 0.57 0.63 0.62 0.58 0.53 0.50 0.45 0.40 0.37 0.36 0.35 0.34 0.32 0.31 0.28 0.25 0.27 0.26 0.25 0.25 0.27 0.28 0.28 0.28 0.31 0.33 0.32 0.30 0.30 0.30 0.31 0.33 0.34 0.36 0.36
0.71 0.71 0.69 0.69 0.66 0.64 0.61 0.61 0.66 0.66 0.62 0.58 0.54 0.46 0.40 0.37 0.34 0.32 0.32 0.31 0.30 0.29 0.27 0.25 0.23 0.25 0.24 0.23 0.22 0.24 0.25 0.26 0.30 0.32 0.31 0.31 0.31 0.30 0.30 0.32 0.34 0.36 0.35
0.60 0.60 0.61 0.62 0.61 0.58 0.60 0.64 0.65 0.62 0.61 0.54 0.47 0.40 0.36 0.34 0.31 0.30 0.30 0.29 0.28 0.26 0.25 0.23 0.22 0.21 0.21 0.20 0.20 0.18 0.18 0.22 0.24 0.28 0.28 0.29 0.30 0.30 0.30 0.31 0.32 0.34 0.35
0.57 0.58 0.56 0.53 0.54 0.58 0.61 0.61 0.60 0.58 0.54 0.50 0.46 0.41 0.37 0.33 0.33 0.30 0.27 0.26 0.25 0.23 0.22 0.21 0.19 0.19 0.17 0.15 0.14 0.15 0.15 0.18 0.21 0.25 0.25 0.26 0.26 0.28 0.28 0.30 0.31 0.33 0.30
0.55 0.53 0.54 0.56 0.57 0.59 0.59 0.58 0.56 0.52 0.50 0.45 0.41 0.39 0.38 0.35 0.33 0.31 0.28 0.26 0.24 0.22 0.20 0.19 0.17 0.15 0.15 0.14 0.14 0.14 0.15 0.16 0.16 0.25 0.23 0.23 0.25 0.23 0.26 0.28 0.30 0.30 0.27
0.47 0.48 0.52 0.52 0.51 0.53 0.55 0.56 0.54 0.52 0.50 0.49 0.45 0.41 0.36 0.34 0.32 0.29 0.27 0.26 0.24 0.21 0.20 0.18 0.15 0.15 0.15 0.15 0.14 0.15 0.16 0.16 0.18 0.21 0.22 0.20 0.21 0.21 0.24 0.25 0.28 0.29 0.25
0.44 0.47 0.48 0.48 0.48 0.49 0.50 0.52 0.53 0.51 0.49 0.48 0.44 0.40 0.35 0.30 0.29 0.26 0.24 0.22 0.22 0.22 0.21 0.20 0.19 0.18 0.18 0.18 0.17 0.18 0.18 0.19 0.20 0.22 0.23 0.17 0.20 0.18 0.20 0.23 0.24 0.25 0.23
0.43 0.44 0.45 0.45 0.45 0.46 0.47 0.48 0.49 0.49 0.47 0.45 0.42 0.36 0.31 0.28 0.29 0.26 0.23 0.22 0.21 0.21 0.22 0.23 0.22 0.21 0.20 0.19 0.21 0.21 0.19 0.18 0.16 0.18 0.21 0.17 0.17 0.16 0.17 0.19 0.20 0.22 0.23
0.41 0.42 0.42 0.42 0.43 0.43 0.45 0.45 0.45 0.47 0.44 0.43 0.40 0.35 0.30 0.28 0.28 0.25 0.22 0.20 0.19 0.20 0.20 0.20 0.19 0.19 0.18 0.17 0.17 0.16 0.19 0.17 0.15 0.14 0.17 0.15 0.17 0.17 0.15 0.15 0.18 0.20 0.20